Location: Москва
(55.7504°N, 37.6175°E)
Time: 14:25:19
(UTC+03:00)

Envisat - Pass Details

Date: 19 September 2021
Orbit: 764 x 766 km, 98.2° (Epoch: 20 October)

Event Time Altitude Azimuth Distance (km) Brightness Sun altitude
Rises 03:58:05 0° 28° (NNE) 3,247 7.3 -18.2°
Reaches altitude 10° 04:02:20 10° 62° (ENE) 2,312 6.8 -17.7°
Maximum altitude 04:03:53 11° 80° (E) 2,220 6.4 -17.5°
Drops below altitude 10° 04:05:26 10° 98° (E) 2,307 6.2 -17.3°
Sets 04:09:38 0° 132° (SE) 3,225 6.5 -16.8°
